This is the latest recevied weather packets stored in our database for station/object IN3APK-3. If no packets are shown the sender has not sent any weather packets the latest 10 day(s).
| Time | Temp. | Humidity | Pressure | Rain* | Wind** | Luminosity | Snow |
|---|---|---|---|---|---|---|---|
| 1777188699 | 12.78° C | 38% | 1013.1 hPa | - | - | - | - |
| 1777188046 | 12.22° C | 39% | 1013.2 hPa | - | - | - | - |
| 1777186741 | 11.67° C | 39% | 1013.1 hPa | - | - | - | - |
| 1777186089 | 11.67° C | 38% | 1013.1 hPa | - | - | - | - |
| 1777185437 | 11.11° C | 39% | 1013 hPa | - | - | - | - |
| 1777184784 | 11.11° C | 39% | 1013 hPa | - | - | - | - |
| 1777183479 | 10° C | 39% | 1012.9 hPa | - | - | - | - |
| 1777182174 | 9.44° C | 39% | 1012.9 hPa | - | - | - | - |
| 1777181522 | 9.44° C | 39% | 1012.8 hPa | - | - | - | - |
| 1777180869 | 8.89° C | 39% | 1012.6 hPa | - | - | - | - |
| 1777180216 | 8.89° C | 40% | 1012.5 hPa | - | - | - | - |
| 1777179564 | 8.33° C | 40% | 1012.4 hPa | - | - | - | - |
| 1777178911 | 8.33° C | 40% | 1012.3 hPa | - | - | - | - |
| 1777178259 | 8.33° C | 40% | 1012 hPa | - | - | - | - |
| 1777177607 | 7.78° C | 40% | 1011.9 hPa | - | - | - | - |
| 1777176954 | 7.78° C | 40% | 1011.8 hPa | - | - | - | - |
| 1777176302 | 7.78° C | 40% | 1011.6 hPa | - | - | - | - |
| 1777175650 | 7.78° C | 40% | 1011.6 hPa | - | - | - | - |
| 1777174998 | 7.78° C | 40% | 1011.6 hPa | - | - | - | - |
| 1777174345 | 8.33° C | 40% | 1011.6 hPa | - | - | - | - |
| 1777173041 | 8.33° C | 40% | 1011.4 hPa | - | - | - | - |
| 1777172388 | 8.33° C | 40% | 1011.3 hPa | - | - | - | - |
| 1777171736 | 8.89° C | 40% | 1011.3 hPa | - | - | - | - |
| 1777171084 | 8.89° C | 40% | 1011.2 hPa | - | - | - | - |
| 1777170432 | 8.89° C | 40% | 1011.2 hPa | - | - | - | - |
* Rain since midnight (hover to see other rain measurements)
** Current wind speed in m/s (hover to see current wind gust speed)